CZ-6 R/B

Satellite information

Favourite Embed

Satellite Type and Status

ROCKET BODYIN ORBIT

Key statistics

Satellite CZ-6 R/B at a glance.

Uptime

1399

Days in orbit

Revolutions

≈ 14.4

Per day

Orbit

LEO

Low Earth Orbit

Inclination

45.0

Latest

Satellite identification and parameters

Extended collection of information and parameters for CZ-6 R/B.

Object identification

Identified? True

Debris? False

Object name: CZ-6 R/B

International designator: 2021-064F

Object number (NORAD): 49023

Object ID (CCSDS): 49023

Country: PEOPLES REPUBLIC OF CHINA (PRC)

Current information (Y/N): Y

RCS size: LARGE

Orbital parameters

Period: 100.001 minutes

Inclination: 44.9993 deg

SMA: 7136.668 km

Apoapsis: 881.661 km

Periapsis: 635.405 km

RAAN: 286.9197 deg

Eccentricy: 0.0172529

Argument of periapsis: 198.4147 deg

Mean anomaly: 161.0404 deg

Mean motion: 14.39990224 rev/day

Mean motion (dot): 0.00000415 rev/day2

B* drag term: 0.00015243 1/REarth

Two-line elements (TLE)

Creation date: May 8, 2025, 3:01 a.m.

Reference frame: TEME

Reference center: EARTH

Epoch: May 7, 2025, 11:14 a.m. UTC

TLE line 0: 0 CZ-6 R/B

TLE line 1: 1 49023U 21064F 25127.46822248 .00000415 00000-0 15243-3 0 9992

TLE line 2: 2 49023 44.9993 286.9197 0172529 198.4147 161.0404 14.39990224201394

Live tracking on map

Real-time ground track for satellite CZ-6 R/B.

In-orbit conjunctions

A list of the most updated potential collisions computed for object CZ-6 R/B.

Target Orbit TCA Probability of collision Miss distance Type
CZ-2D DEB SSO 2025-02-21 10:09:56 0.0001103727 637.0 (m) DEBRIS
CZ-4B R/B SSO 2025-02-20 20:12:05 0.0005641138 360.0 (m) ROCKET BODY
PEGASUS DEB LEO 2025-02-07 21:31:25 0.0001495763 238.0 (m) DEBRIS
CZ-6A DEB LEO 2024-10-25 00:36:25 0.0006002461 530.0 (m) DEBRIS
COSMOS 2251 DEB LEO 2024-08-21 12:34:07 0.0002677454 740.0 (m) DEBRIS

Associated space launch

The Ningxin-1 satellites (also called Zhongzi) are a series of Chinese commercial remote sensing satellite owned by Ningxia Jingui Information Technology Co. Ltd. The satellites were built by DFH Satellite Co. Ltd of CAST. They have been reported to be a commercial operated global EM spectrum signal monitoring satellite system (SIGINT).

CZ-6 R/B was lifted into orbit during the mission ‘Long March 6 | Zhongzi Group 02 (Ningxia-1-02)’, on board a Long March 6 space rocket.

The launch took place on July 9, 2021, 11:59 a.m. from Launch Complex 16.

For more information about the launch, click the button.

Launch to space Long March 6 | Zhongzi Group 02 (Ningxia-1-02)
Long March 6 | Zhongzi Group 02 (Ningxia-1-02)

Agency: N/A

Status: Launch Successful

Launch date: July 9, 2021, 11:59 a.m. UTC

Rocket: Long March 6

Launch pad: Launch Complex 16

Location: Taiyuan Satellite Launch Center, People's Republic of China

...

Latest news about this satellite

News about space launch
China’s Long March 6 launches five satellites

China successfully launched a Chang Zheng 6 rocket from LC-16 at the Taiyuan Satellite Launch Center at 11:59 UTC (7:59 PM Beijing time) on Friday July 9.  This launch is the sixth launch of the Chang Zheng 6 (CZ-6), also known as the Long March 6, and th...


Newsletter sign-up

Weekly statistics, charts and insights to help you stay on top of the space industry.